owner,sensor,date,latitude,longitude,vertical_datum,sea_water_temperature,qcFlag 
ENP,ioos.station.NOAA.NDBC:DKKF1:1,2019-11-01T00:00:00Z,25.1800,-80.4900,1.0,29.1,11111222 
ENP,ioos.station.NOAA.NDBC:DKKF1:1,2019-11-01T01:00:00Z,25.1800,-80.4900,1.0,29.05,11111222 
ENP,ioos.station.NOAA.NDBC:DKKF1:1,2019-11-01T03:00:00Z,25.1800,-80.4900,1.0,28.86,11111222 
ENP,ioos.station.NOAA.NDBC:DKKF1:1,2019-11-01T04:00:00Z,25.1800,-80.4900,1.0,28.85,11111222 
ENP,ioos.station.NOAA.NDBC:DKKF1:1,2019-11-01T05:00:00Z,25.1800,-80.4900,1.0,28.86,11111222 
ENP,ioos.station.NOAA.NDBC:DKKF1:1,2019-11-01T06:00:00Z,25.1800,-80.4900,1.0,28.83,11111222 
ENP,ioos.station.NOAA.NDBC:DKKF1:1,2019-11-01T07:00:00Z,25.1800,-80.4900,1.0,28.76,11111222 
ENP,ioos.station.NOAA.NDBC:DKKF1:1,2019-11-01T08:00:00Z,25.1800,-80.4900,1.0,28.56,11111222 
ENP,ioos.station.NOAA.NDBC:DKKF1:1,2019-11-01T09:00:00Z,25.1800,-80.4900,1.0,28.46,11111222 
ENP,ioos.station.NOAA.NDBC:DKKF1:1,2019-11-01T10:00:00Z,25.1800,-80.4900,1.0,28.36,11111222 
ENP,ioos.station.NOAA.NDBC:DKKF1:1,2019-11-01T11:00:00Z,25.1800,-80.4900,1.0,28.4,11111222 
ENP,ioos.station.NOAA.NDBC:DKKF1:1,2019-11-01T12:00:00Z,25.1800,-80.4900,1.0,28.39,11111222 
ENP,ioos.station.NOAA.NDBC:DKKF1:1,2019-11-01T14:00:00Z,25.1800,-80.4900,1.0,28.3,11111222 
ENP,ioos.station.NOAA.NDBC:DKKF1:1,2019-11-01T16:00:00Z,25.1800,-80.4900,1.0,28.51,11111222 
ENP,ioos.station.NOAA.NDBC:DKKF1:1,2019-11-01T17:00:00Z,25.1800,-80.4900,1.0,28.71,11111222 
ENP,ioos.station.NOAA.NDBC:DKKF1:1,2019-11-01T18:00:00Z,25.1800,-80.4900,1.0,28.96,11111222 
ENP,ioos.station.NOAA.NDBC:DKKF1:1,2019-11-01T19:00:00Z,25.1800,-80.4900,1.0,29.2,11111222 
ENP,ioos.station.NOAA.NDBC:DKKF1:1,2019-11-01T20:00:00Z,25.1800,-80.4900,1.0,29.46,11111222 
ENP,ioos.station.NOAA.NDBC:DKKF1:1,2019-11-01T22:00:00Z,25.1800,-80.4900,1.0,29.61,11111222 
ENP,ioos.station.NOAA.NDBC:DKKF1:1,2019-11-01T23:00:00Z,25.1800,-80.4900,1.0,29.55,11111222 
ENP,ioos.station.NOAA.NDBC:DKKF1:1,2019-11-02T01:00:00Z,25.1800,-80.4900,1.0,29.4,11111222 
ENP,ioos.station.NOAA.NDBC:DKKF1:1,2019-11-02T03:00:00Z,25.1800,-80.4900,1.0,29.22,11111222 
ENP,ioos.station.NOAA.NDBC:DKKF1:1,2019-11-02T04:00:00Z,25.1800,-80.4900,1.0,29.11,11111222 
ENP,ioos.station.NOAA.NDBC:DKKF1:1,2019-11-02T05:00:00Z,25.1800,-80.4900,1.0,29.03,11111222 
ENP,ioos.station.NOAA.NDBC:DKKF1:1,2019-11-02T06:00:00Z,25.1800,-80.4900,1.0,28.95,11111222 
ENP,ioos.station.NOAA.NDBC:DKKF1:1,2019-11-02T07:00:00Z,25.1800,-80.4900,1.0,28.86,11111222 
ENP,ioos.station.NOAA.NDBC:DKKF1:1,2019-11-02T08:00:00Z,25.1800,-80.4900,1.0,28.79,11111222 
ENP,ioos.station.NOAA.NDBC:DKKF1:1,2019-11-02T09:00:00Z,25.1800,-80.4900,1.0,28.72,11111222 
ENP,ioos.station.NOAA.NDBC:DKKF1:1,2019-11-02T10:00:00Z,25.1800,-80.4900,1.0,28.64,11111222 
ENP,ioos.station.NOAA.NDBC:DKKF1:1,2019-11-02T12:00:00Z,25.1800,-80.4900,1.0,28.44,11111222 
ENP,ioos.station.NOAA.NDBC:DKKF1:1,2019-11-02T13:00:00Z,25.1800,-80.4900,1.0,28.37,11111222 
ENP,ioos.station.NOAA.NDBC:DKKF1:1,2019-11-02T14:00:00Z,25.1800,-80.4900,1.0,28.37,11111222 
ENP,ioos.station.NOAA.NDBC:DKKF1:1,2019-11-02T15:00:00Z,25.1800,-80.4900,1.0,28.47,11111222 
ENP,ioos.station.NOAA.NDBC:DKKF1:1,2019-11-02T16:00:00Z,25.1800,-80.4900,1.0,28.54,11111222 
ENP,ioos.station.NOAA.NDBC:DKKF1:1,2019-11-02T17:00:00Z,25.1800,-80.4900,1.0,28.7,11111222 
ENP,ioos.station.NOAA.NDBC:DKKF1:1,2019-11-02T18:00:00Z,25.1800,-80.4900,1.0,28.89,11111222 
ENP,ioos.station.NOAA.NDBC:DKKF1:1,2019-11-02T19:00:00Z,25.1800,-80.4900,1.0,29.07,11111222 
ENP,ioos.station.NOAA.NDBC:DKKF1:1,2019-11-02T20:00:00Z,25.1800,-80.4900,1.0,29.23,11111222 
ENP,ioos.station.NOAA.NDBC:DKKF1:1,2019-11-02T21:00:00Z,25.1800,-80.4900,1.0,29.36,11111222 
ENP,ioos.station.NOAA.NDBC:DKKF1:1,2019-11-02T22:00:00Z,25.1800,-80.4900,1.0,29.34,11111222 
ENP,ioos.station.NOAA.NDBC:DKKF1:1,2019-11-02T23:00:00Z,25.1800,-80.4900,1.0,29.24,11111222 
ENP,ioos.station.NOAA.NDBC:DKKF1:1,2019-11-03T00:00:00Z,25.1800,-80.4900,1.0,29.16,11111222 
ENP,ioos.station.NOAA.NDBC:DKKF1:1,2019-11-03T01:00:00Z,25.1800,-80.4900,1.0,29.1,11111222 
ENP,ioos.station.NOAA.NDBC:DKKF1:1,2019-11-03T03:00:00Z,25.1800,-80.4900,1.0,28.98,11111222 
ENP,ioos.station.NOAA.NDBC:DKKF1:1,2019-11-03T04:00:00Z,25.1800,-80.4900,1.0,28.9,11111222 
ENP,ioos.station.NOAA.NDBC:DKKF1:1,2019-11-03T06:00:00Z,25.1800,-80.4900,1.0,28.73,11111222 
ENP,ioos.station.NOAA.NDBC:DKKF1:1,2019-11-03T07:00:00Z,25.1800,-80.4900,1.0,28.68,11111222 
ENP,ioos.station.NOAA.NDBC:DKKF1:1,2019-11-03T08:00:00Z,25.1800,-80.4900,1.0,28.62,11111222 
ENP,ioos.station.NOAA.NDBC:DKKF1:1,2019-11-03T09:00:00Z,25.1800,-80.4900,1.0,28.53,11111222 
ENP,ioos.station.NOAA.NDBC:DKKF1:1,2019-11-03T10:00:00Z,25.1800,-80.4900,1.0,28.44,11111222 
ENP,ioos.station.NOAA.NDBC:DKKF1:1,2019-11-03T11:00:00Z,25.1800,-80.4900,1.0,28.38,11111222 
ENP,ioos.station.NOAA.NDBC:DKKF1:1,2019-11-03T12:00:00Z,25.1800,-80.4900,1.0,28.3,11111222 
ENP,ioos.station.NOAA.NDBC:DKKF1:1,2019-11-03T13:00:00Z,25.1800,-80.4900,1.0,28.2,11111222 
ENP,ioos.station.NOAA.NDBC:DKKF1:1,2019-11-03T14:00:00Z,25.1800,-80.4900,1.0,28.17,11111222 
ENP,ioos.station.NOAA.NDBC:DKKF1:1,2019-11-03T15:00:00Z,25.1800,-80.4900,1.0,28.21,11111222 
ENP,ioos.station.NOAA.NDBC:DKKF1:1,2019-11-03T16:00:00Z,25.1800,-80.4900,1.0,28.37,11111222 
ENP,ioos.station.NOAA.NDBC:DKKF1:1,2019-11-03T17:00:00Z,25.1800,-80.4900,1.0,28.56,11111222 
ENP,ioos.station.NOAA.NDBC:DKKF1:1,2019-11-03T18:00:00Z,25.1800,-80.4900,1.0,28.81,11111222 
ENP,ioos.station.NOAA.NDBC:DKKF1:1,2019-11-03T19:00:00Z,25.1800,-80.4900,1.0,28.98,11111222 
ENP,ioos.station.NOAA.NDBC:DKKF1:1,2019-11-03T20:00:00Z,25.1800,-80.4900,1.0,29.16,11111222 
ENP,ioos.station.NOAA.NDBC:DKKF1:1,2019-11-03T21:00:00Z,25.1800,-80.4900,1.0,29.28,11111222 
ENP,ioos.station.NOAA.NDBC:DKKF1:1,2019-11-03T22:00:00Z,25.1800,-80.4900,1.0,29.29,11111222 
ENP,ioos.station.NOAA.NDBC:DKKF1:1,2019-11-03T23:00:00Z,25.1800,-80.4900,1.0,29.11,11111222 
ENP,ioos.station.NOAA.NDBC:DKKF1:1,2019-11-04T01:00:00Z,25.1800,-80.4900,1.0,28.87,11111222 
ENP,ioos.station.NOAA.NDBC:DKKF1:1,2019-11-04T02:00:00Z,25.1800,-80.4900,1.0,28.71,11111222 
ENP,ioos.station.NOAA.NDBC:DKKF1:1,2019-11-04T04:00:00Z,25.1800,-80.4900,1.0,28.58,11111222 
ENP,ioos.station.NOAA.NDBC:DKKF1:1,2019-11-04T15:00:00Z,25.1800,-80.4900,1.0,28.09,11111222 
ENP,ioos.station.NOAA.NDBC:DKKF1:1,2019-11-04T16:00:00Z,25.1800,-80.4900,1.0,28.18,11111222 
ENP,ioos.station.NOAA.NDBC:DKKF1:1,2019-11-04T17:00:00Z,25.1800,-80.4900,1.0,28.36,11111222 
ENP,ioos.station.NOAA.NDBC:DKKF1:1,2019-11-04T18:00:00Z,25.1800,-80.4900,1.0,28.47,11111222 
ENP,ioos.station.NOAA.NDBC:DKKF1:1,2019-11-04T19:00:00Z,25.1800,-80.4900,1.0,28.67,11111222 
ENP,ioos.station.NOAA.NDBC:DKKF1:1,2019-11-04T20:00:00Z,25.1800,-80.4900,1.0,28.82,11111222 
ENP,ioos.station.NOAA.NDBC:DKKF1:1,2019-11-04T21:00:00Z,25.1800,-80.4900,1.0,28.86,11111222 
ENP,ioos.station.NOAA.NDBC:DKKF1:1,2019-11-04T22:00:00Z,25.1800,-80.4900,1.0,28.81,11111222 
ENP,ioos.station.NOAA.NDBC:DKKF1:1,2019-11-04T23:00:00Z,25.1800,-80.4900,1.0,28.68,11111222 
ENP,ioos.station.NOAA.NDBC:DKKF1:1,2019-11-05T00:00:00Z,25.1800,-80.4900,1.0,28.64,11111222 
ENP,ioos.station.NOAA.NDBC:DKKF1:1,2019-11-05T02:00:00Z,25.1800,-80.4900,1.0,28.47,11111222 
ENP,ioos.station.NOAA.NDBC:DKKF1:1,2019-11-05T04:00:00Z,25.1800,-80.4900,1.0,28.21,11111222 
ENP,ioos.station.NOAA.NDBC:DKKF1:1,2019-11-05T05:00:00Z,25.1800,-80.4900,1.0,28.16,11111222 
ENP,ioos.station.NOAA.NDBC:DKKF1:1,2019-11-05T06:00:00Z,25.1800,-80.4900,1.0,28.03,11111222 
ENP,ioos.station.NOAA.NDBC:DKKF1:1,2019-11-05T07:00:00Z,25.1800,-80.4900,1.0,27.93,11111222 
ENP,ioos.station.NOAA.NDBC:DKKF1:1,2019-11-05T08:00:00Z,25.1800,-80.4900,1.0,27.83,11111222 
ENP,ioos.station.NOAA.NDBC:DKKF1:1,2019-11-05T09:00:00Z,25.1800,-80.4900,1.0,27.69,11111222 
ENP,ioos.station.NOAA.NDBC:DKKF1:1,2019-11-05T10:00:00Z,25.1800,-80.4900,1.0,27.55,11111222 
ENP,ioos.station.NOAA.NDBC:DKKF1:1,2019-11-05T11:00:00Z,25.1800,-80.4900,1.0,27.42,11111222 
ENP,ioos.station.NOAA.NDBC:DKKF1:1,2019-11-05T12:00:00Z,25.1800,-80.4900,1.0,27.36,11111222 
ENP,ioos.station.NOAA.NDBC:DKKF1:1,2019-11-05T13:00:00Z,25.1800,-80.4900,1.0,27.32,11111222 
ENP,ioos.station.NOAA.NDBC:DKKF1:1,2019-11-05T14:00:00Z,25.1800,-80.4900,1.0,27.33,11111222 
ENP,ioos.station.NOAA.NDBC:DKKF1:1,2019-11-05T15:00:00Z,25.1800,-80.4900,1.0,27.47,11111222 
ENP,ioos.station.NOAA.NDBC:DKKF1:1,2019-11-05T16:00:00Z,25.1800,-80.4900,1.0,27.67,11111222 
ENP,ioos.station.NOAA.NDBC:DKKF1:1,2019-11-05T17:00:00Z,25.1800,-80.4900,1.0,27.88,11111222 
ENP,ioos.station.NOAA.NDBC:DKKF1:1,2019-11-05T18:00:00Z,25.1800,-80.4900,1.0,28.08,11111222 
ENP,ioos.station.NOAA.NDBC:DKKF1:1,2019-11-05T19:00:00Z,25.1800,-80.4900,1.0,28.28,11111222 
ENP,ioos.station.NOAA.NDBC:DKKF1:1,2019-11-05T20:00:00Z,25.1800,-80.4900,1.0,28.39,11111222 
ENP,ioos.station.NOAA.NDBC:DKKF1:1,2019-11-05T21:00:00Z,25.1800,-80.4900,1.0,28.5,11111222 
ENP,ioos.station.NOAA.NDBC:DKKF1:1,2019-11-05T22:00:00Z,25.1800,-80.4900,1.0,28.57,11111222 
ENP,ioos.station.NOAA.NDBC:DKKF1:1,2019-11-05T23:00:00Z,25.1800,-80.4900,1.0,28.56,11111222 
ENP,ioos.station.NOAA.NDBC:DKKF1:1,2019-11-06T00:00:00Z,25.1800,-80.4900,1.0,28.51,11111222 
ENP,ioos.station.NOAA.NDBC:DKKF1:1,2019-11-06T01:00:00Z,25.1800,-80.4900,1.0,28.4,11111222 
ENP,ioos.station.NOAA.NDBC:DKKF1:1,2019-11-06T02:00:00Z,25.1800,-80.4900,1.0,28.32,11111222 
ENP,ioos.station.NOAA.NDBC:DKKF1:1,2019-11-06T04:00:00Z,25.1800,-80.4900,1.0,28.19,11111222 
ENP,ioos.station.NOAA.NDBC:DKKF1:1,2019-11-06T05:00:00Z,25.1800,-80.4900,1.0,28.12,11111222 
ENP,ioos.station.NOAA.NDBC:DKKF1:1,2019-11-06T06:00:00Z,25.1800,-80.4900,1.0,28.04,11111222 
ENP,ioos.station.NOAA.NDBC:DKKF1:1,2019-11-06T07:00:00Z,25.1800,-80.4900,1.0,27.94,11111222 
ENP,ioos.station.NOAA.NDBC:DKKF1:1,2019-11-06T08:00:00Z,25.1800,-80.4900,1.0,27.81,11111222 
ENP,ioos.station.NOAA.NDBC:DKKF1:1,2019-11-06T09:00:00Z,25.1800,-80.4900,1.0,27.73,11111222 
ENP,ioos.station.NOAA.NDBC:DKKF1:1,2019-11-06T10:00:00Z,25.1800,-80.4900,1.0,27.68,11111222 
ENP,ioos.station.NOAA.NDBC:DKKF1:1,2019-11-06T11:00:00Z,25.1800,-80.4900,1.0,27.58,11111222 
ENP,ioos.station.NOAA.NDBC:DKKF1:1,2019-11-06T12:00:00Z,25.1800,-80.4900,1.0,27.49,11111222 
ENP,ioos.station.NOAA.NDBC:DKKF1:1,2019-11-06T13:00:00Z,25.1800,-80.4900,1.0,27.43,11111222 
ENP,ioos.station.NOAA.NDBC:DKKF1:1,2019-11-06T14:00:00Z,25.1800,-80.4900,1.0,27.43,11111222 
ENP,ioos.station.NOAA.NDBC:DKKF1:1,2019-11-06T15:00:00Z,25.1800,-80.4900,1.0,27.46,11111222 
ENP,ioos.station.NOAA.NDBC:DKKF1:1,2019-11-06T16:00:00Z,25.1800,-80.4900,1.0,27.52,11111222 
ENP,ioos.station.NOAA.NDBC:DKKF1:1,2019-11-06T17:00:00Z,25.1800,-80.4900,1.0,27.67,11111222 
ENP,ioos.station.NOAA.NDBC:DKKF1:1,2019-11-06T18:00:00Z,25.1800,-80.4900,1.0,27.87,11111222 
ENP,ioos.station.NOAA.NDBC:DKKF1:1,2019-11-06T19:00:00Z,25.1800,-80.4900,1.0,28.12,11111222 
ENP,ioos.station.NOAA.NDBC:DKKF1:1,2019-11-06T20:00:00Z,25.1800,-80.4900,1.0,28.31,11111222 
ENP,ioos.station.NOAA.NDBC:DKKF1:1,2019-11-06T21:00:00Z,25.1800,-80.4900,1.0,28.42,11111222 
ENP,ioos.station.NOAA.NDBC:DKKF1:1,2019-11-06T22:00:00Z,25.1800,-80.4900,1.0,28.43,11111222 
ENP,ioos.station.NOAA.NDBC:DKKF1:1,2019-11-06T23:00:00Z,25.1800,-80.4900,1.0,28.38,11111222 
ENP,ioos.station.NOAA.NDBC:DKKF1:1,2019-11-07T00:00:00Z,25.1800,-80.4900,1.0,28.29,11111222 
ENP,ioos.station.NOAA.NDBC:DKKF1:1,2019-11-07T02:00:00Z,25.1800,-80.4900,1.0,28.11,11111222 
ENP,ioos.station.NOAA.NDBC:DKKF1:1,2019-11-07T04:00:00Z,25.1800,-80.4900,1.0,27.83,11111222 
ENP,ioos.station.NOAA.NDBC:DKKF1:1,2019-11-07T05:00:00Z,25.1800,-80.4900,1.0,27.75,11111222 
ENP,ioos.station.NOAA.NDBC:DKKF1:1,2019-11-07T06:00:00Z,25.1800,-80.4900,1.0,27.66,11111222 
ENP,ioos.station.NOAA.NDBC:DKKF1:1,2019-11-07T07:00:00Z,25.1800,-80.4900,1.0,27.56,11111222 
ENP,ioos.station.NOAA.NDBC:DKKF1:1,2019-11-07T08:00:00Z,25.1800,-80.4900,1.0,27.5,11111222 
ENP,ioos.station.NOAA.NDBC:DKKF1:1,2019-11-07T09:00:00Z,25.1800,-80.4900,1.0,27.41,11111222 
ENP,ioos.station.NOAA.NDBC:DKKF1:1,2019-11-07T10:00:00Z,25.1800,-80.4900,1.0,27.32,11111222 
ENP,ioos.station.NOAA.NDBC:DKKF1:1,2019-11-07T11:00:00Z,25.1800,-80.4900,1.0,27.23,11111222 
ENP,ioos.station.NOAA.NDBC:DKKF1:1,2019-11-07T12:00:00Z,25.1800,-80.4900,1.0,27.14,11111222 
ENP,ioos.station.NOAA.NDBC:DKKF1:1,2019-11-07T13:00:00Z,25.1800,-80.4900,1.0,27.08,11111222 
ENP,ioos.station.NOAA.NDBC:DKKF1:1,2019-11-07T14:00:00Z,25.1800,-80.4900,1.0,27.09,11111222 
ENP,ioos.station.NOAA.NDBC:DKKF1:1,2019-11-07T15:00:00Z,25.1800,-80.4900,1.0,27.15,11111222 
ENP,ioos.station.NOAA.NDBC:DKKF1:1,2019-11-07T16:00:00Z,25.1800,-80.4900,1.0,27.3,11111222 
ENP,ioos.station.NOAA.NDBC:DKKF1:1,2019-11-07T17:00:00Z,25.1800,-80.4900,1.0,27.5,11111222 
ENP,ioos.station.NOAA.NDBC:DKKF1:1,2019-11-07T18:00:00Z,25.1800,-80.4900,1.0,27.59,11111222 
ENP,ioos.station.NOAA.NDBC:DKKF1:1,2019-11-07T19:00:00Z,25.1800,-80.4900,1.0,27.69,11111222 
ENP,ioos.station.NOAA.NDBC:DKKF1:1,2019-11-07T20:00:00Z,25.1800,-80.4900,1.0,27.82,11111222 
ENP,ioos.station.NOAA.NDBC:DKKF1:1,2019-11-07T21:00:00Z,25.1800,-80.4900,1.0,27.95,11111222 
ENP,ioos.station.NOAA.NDBC:DKKF1:1,2019-11-07T22:00:00Z,25.1800,-80.4900,1.0,27.99,11111222 
ENP,ioos.station.NOAA.NDBC:DKKF1:1,2019-11-07T23:00:00Z,25.1800,-80.4900,1.0,27.94,11111222 
ENP,ioos.station.NOAA.NDBC:DKKF1:1,2019-11-08T00:00:00Z,25.1800,-80.4900,1.0,27.85,11111222 
ENP,ioos.station.NOAA.NDBC:DKKF1:1,2019-11-08T02:00:00Z,25.1800,-80.4900,1.0,27.7,11111222 
ENP,ioos.station.NOAA.NDBC:DKKF1:1,2019-11-08T04:00:00Z,25.1800,-80.4900,1.0,27.62,11111222 
ENP,ioos.station.NOAA.NDBC:DKKF1:1,2019-11-08T05:00:00Z,25.1800,-80.4900,1.0,27.58,11111222 
ENP,ioos.station.NOAA.NDBC:DKKF1:1,2019-11-08T06:00:00Z,25.1800,-80.4900,1.0,27.53,11111222 
ENP,ioos.station.NOAA.NDBC:DKKF1:1,2019-11-08T07:00:00Z,25.1800,-80.4900,1.0,27.46,11111222 
ENP,ioos.station.NOAA.NDBC:DKKF1:1,2019-11-08T08:00:00Z,25.1800,-80.4900,1.0,27.4,11111222 
ENP,ioos.station.NOAA.NDBC:DKKF1:1,2019-11-08T09:00:00Z,25.1800,-80.4900,1.0,27.35,11111222 
ENP,ioos.station.NOAA.NDBC:DKKF1:1,2019-11-08T10:00:00Z,25.1800,-80.4900,1.0,27.29,11111222 
ENP,ioos.station.NOAA.NDBC:DKKF1:1,2019-11-08T11:00:00Z,25.1800,-80.4900,1.0,27.22,11111222 
ENP,ioos.station.NOAA.NDBC:DKKF1:1,2019-11-08T13:00:00Z,25.1800,-80.4900,1.0,27.09,11111222 
ENP,ioos.station.NOAA.NDBC:DKKF1:1,2019-11-08T14:00:00Z,25.1800,-80.4900,1.0,27.11,11111222 
ENP,ioos.station.NOAA.NDBC:DKKF1:1,2019-11-08T16:00:00Z,25.1800,-80.4900,1.0,27.27,11111222 
ENP,ioos.station.NOAA.NDBC:DKKF1:1,2019-11-08T17:00:00Z,25.1800,-80.4900,1.0,27.46,11111222 
ENP,ioos.station.NOAA.NDBC:DKKF1:1,2019-11-08T18:00:00Z,25.1800,-80.4900,1.0,27.64,11111222 
ENP,ioos.station.NOAA.NDBC:DKKF1:1,2019-11-08T19:00:00Z,25.1800,-80.4900,1.0,27.91,11111222 
ENP,ioos.station.NOAA.NDBC:DKKF1:1,2019-11-08T20:00:00Z,25.1800,-80.4900,1.0,28.11,11111222 
ENP,ioos.station.NOAA.NDBC:DKKF1:1,2019-11-08T21:00:00Z,25.1800,-80.4900,1.0,28.22,11111222 
ENP,ioos.station.NOAA.NDBC:DKKF1:1,2019-11-08T22:00:00Z,25.1800,-80.4900,1.0,28.31,11111222 
ENP,ioos.station.NOAA.NDBC:DKKF1:1,2019-11-08T23:00:00Z,25.1800,-80.4900,1.0,28.36,11111222 
ENP,ioos.station.NOAA.NDBC:DKKF1:1,2019-11-09T00:00:00Z,25.1800,-80.4900,1.0,28.36,11111222 
ENP,ioos.station.NOAA.NDBC:DKKF1:1,2019-11-09T01:00:00Z,25.1800,-80.4900,1.0,28.37,11111222 
ENP,ioos.station.NOAA.NDBC:DKKF1:1,2019-11-09T02:00:00Z,25.1800,-80.4900,1.0,28.38,11111222 
ENP,ioos.station.NOAA.NDBC:DKKF1:1,2019-11-09T04:00:00Z,25.1800,-80.4900,1.0,28.44,11111222 
ENP,ioos.station.NOAA.NDBC:DKKF1:1,2019-11-09T05:00:00Z,25.1800,-80.4900,1.0,28.47,11111222 
ENP,ioos.station.NOAA.NDBC:DKKF1:1,2019-11-09T06:00:00Z,25.1800,-80.4900,1.0,28.43,11111222 
ENP,ioos.station.NOAA.NDBC:DKKF1:1,2019-11-09T07:00:00Z,25.1800,-80.4900,1.0,28.38,11111222 
ENP,ioos.station.NOAA.NDBC:DKKF1:1,2019-11-09T08:00:00Z,25.1800,-80.4900,1.0,28.36,11111222 
ENP,ioos.station.NOAA.NDBC:DKKF1:1,2019-11-09T09:00:00Z,25.1800,-80.4900,1.0,28.19,11111222 
ENP,ioos.station.NOAA.NDBC:DKKF1:1,2019-11-09T10:00:00Z,25.1800,-80.4900,1.0,27.98,11111222 
ENP,ioos.station.NOAA.NDBC:DKKF1:1,2019-11-09T11:00:00Z,25.1800,-80.4900,1.0,27.94,11111222 
ENP,ioos.station.NOAA.NDBC:DKKF1:1,2019-11-09T12:00:00Z,25.1800,-80.4900,1.0,27.8,11111222 
ENP,ioos.station.NOAA.NDBC:DKKF1:1,2019-11-09T13:00:00Z,25.1800,-80.4900,1.0,27.63,11111222 
ENP,ioos.station.NOAA.NDBC:DKKF1:1,2019-11-09T14:00:00Z,25.1800,-80.4900,1.0,27.61,11111222 
ENP,ioos.station.NOAA.NDBC:DKKF1:1,2019-11-09T15:00:00Z,25.1800,-80.4900,1.0,27.67,11111222 
ENP,ioos.station.NOAA.NDBC:DKKF1:1,2019-11-09T16:00:00Z,25.1800,-80.4900,1.0,27.69,11111222 
ENP,ioos.station.NOAA.NDBC:DKKF1:1,2019-11-09T17:00:00Z,25.1800,-80.4900,1.0,27.64,11111222 
ENP,ioos.station.NOAA.NDBC:DKKF1:1,2019-11-09T18:00:00Z,25.1800,-80.4900,1.0,27.46,11111222 
ENP,ioos.station.NOAA.NDBC:DKKF1:1,2019-11-09T19:00:00Z,25.1800,-80.4900,1.0,27.26,11111222 
ENP,ioos.station.NOAA.NDBC:DKKF1:1,2019-11-09T20:00:00Z,25.1800,-80.4900,1.0,27.12,11111222 
ENP,ioos.station.NOAA.NDBC:DKKF1:1,2019-11-09T21:00:00Z,25.1800,-80.4900,1.0,26.9,11111222 
ENP,ioos.station.NOAA.NDBC:DKKF1:1,2019-11-09T22:00:00Z,25.1800,-80.4900,1.0,26.77,11111222 
ENP,ioos.station.NOAA.NDBC:DKKF1:1,2019-11-09T23:00:00Z,25.1800,-80.4900,1.0,26.59,11111222 
ENP,ioos.station.NOAA.NDBC:DKKF1:1,2019-11-10T01:00:00Z,25.1800,-80.4900,1.0,26.3,11111222 
ENP,ioos.station.NOAA.NDBC:DKKF1:1,2019-11-10T02:00:00Z,25.1800,-80.4900,1.0,26.15,11111222 
ENP,ioos.station.NOAA.NDBC:DKKF1:1,2019-11-10T04:00:00Z,25.1800,-80.4900,1.0,25.87,11111222 
ENP,ioos.station.NOAA.NDBC:DKKF1:1,2019-11-10T05:00:00Z,25.1800,-80.4900,1.0,25.75,11111222 
ENP,ioos.station.NOAA.NDBC:DKKF1:1,2019-11-10T06:00:00Z,25.1800,-80.4900,1.0,25.59,11111222 
ENP,ioos.station.NOAA.NDBC:DKKF1:1,2019-11-10T07:00:00Z,25.1800,-80.4900,1.0,25.44,11111222 
ENP,ioos.station.NOAA.NDBC:DKKF1:1,2019-11-10T08:00:00Z,25.1800,-80.4900,1.0,25.29,11111222 
ENP,ioos.station.NOAA.NDBC:DKKF1:1,2019-11-10T09:00:00Z,25.1800,-80.4900,1.0,25.14,11111222 
ENP,ioos.station.NOAA.NDBC:DKKF1:1,2019-11-10T10:00:00Z,25.1800,-80.4900,1.0,24.98,11111222 
ENP,ioos.station.NOAA.NDBC:DKKF1:1,2019-11-10T11:00:00Z,25.1800,-80.4900,1.0,24.85,11111222 
ENP,ioos.station.NOAA.NDBC:DKKF1:1,2019-11-10T12:00:00Z,25.1800,-80.4900,1.0,24.73,11111222 
ENP,ioos.station.NOAA.NDBC:DKKF1:1,2019-11-10T13:00:00Z,25.1800,-80.4900,1.0,24.67,11111222 
ENP,ioos.station.NOAA.NDBC:DKKF1:1,2019-11-10T14:00:00Z,25.1800,-80.4900,1.0,24.68,11111222 
ENP,ioos.station.NOAA.NDBC:DKKF1:1,2019-11-10T15:00:00Z,25.1800,-80.4900,1.0,24.71,11111222 
ENP,ioos.station.NOAA.NDBC:DKKF1:1,2019-11-10T16:00:00Z,25.1800,-80.4900,1.0,24.82,11111222 
ENP,ioos.station.NOAA.NDBC:DKKF1:1,2019-11-10T17:00:00Z,25.1800,-80.4900,1.0,25.03,11111222 
ENP,ioos.station.NOAA.NDBC:DKKF1:1,2019-11-10T18:00:00Z,25.1800,-80.4900,1.0,25.22,11111222 
ENP,ioos.station.NOAA.NDBC:DKKF1:1,2019-11-10T19:00:00Z,25.1800,-80.4900,1.0,25.33,11111222 
ENP,ioos.station.NOAA.NDBC:DKKF1:1,2019-11-10T20:00:00Z,25.1800,-80.4900,1.0,25.39,11111222 
ENP,ioos.station.NOAA.NDBC:DKKF1:1,2019-11-10T21:00:00Z,25.1800,-80.4900,1.0,25.37,11111222 
ENP,ioos.station.NOAA.NDBC:DKKF1:1,2019-11-11T01:00:00Z,25.1800,-80.4900,1.0,25.02,11111222 
ENP,ioos.station.NOAA.NDBC:DKKF1:1,2019-11-11T04:00:00Z,25.1800,-80.4900,1.0,24.67,11111222 
ENP,ioos.station.NOAA.NDBC:DKKF1:1,2019-11-11T07:00:00Z,25.1800,-80.4900,1.0,24.54,11111222 
ENP,ioos.station.NOAA.NDBC:DKKF1:1,2019-11-11T08:00:00Z,25.1800,-80.4900,1.0,24.49,11111222 
ENP,ioos.station.NOAA.NDBC:DKKF1:1,2019-11-11T11:00:00Z,25.1800,-80.4900,1.0,24.28,11111222 
ENP,ioos.station.NOAA.NDBC:DKKF1:1,2019-11-11T13:00:00Z,25.1800,-80.4900,1.0,24.13,11111222 
ENP,ioos.station.NOAA.NDBC:DKKF1:1,2019-11-11T14:00:00Z,25.1800,-80.4900,1.0,24.09,11111222 
ENP,ioos.station.NOAA.NDBC:DKKF1:1,2019-11-11T16:00:00Z,25.1800,-80.4900,1.0,24.42,11111222 
ENP,ioos.station.NOAA.NDBC:DKKF1:1,2019-11-11T17:00:00Z,25.1800,-80.4900,1.0,24.54,11111222 
ENP,ioos.station.NOAA.NDBC:DKKF1:1,2019-11-11T18:00:00Z,25.1800,-80.4900,1.0,24.67,11111222 
ENP,ioos.station.NOAA.NDBC:DKKF1:1,2019-11-11T19:00:00Z,25.1800,-80.4900,1.0,24.87,11111222 
ENP,ioos.station.NOAA.NDBC:DKKF1:1,2019-11-11T20:00:00Z,25.1800,-80.4900,1.0,25.03,11111222 
ENP,ioos.station.NOAA.NDBC:DKKF1:1,2019-11-11T21:00:00Z,25.1800,-80.4900,1.0,25.13,11111222 
ENP,ioos.station.NOAA.NDBC:DKKF1:1,2019-11-11T22:00:00Z,25.1800,-80.4900,1.0,25.13,11111222 
ENP,ioos.station.NOAA.NDBC:DKKF1:1,2019-11-11T23:00:00Z,25.1800,-80.4900,1.0,25.1,11111222 
ENP,ioos.station.NOAA.NDBC:DKKF1:1,2019-11-12T00:00:00Z,25.1800,-80.4900,1.0,25.05,11111222 
ENP,ioos.station.NOAA.NDBC:DKKF1:1,2019-11-12T01:00:00Z,25.1800,-80.4900,1.0,25.02,11111222 
ENP,ioos.station.NOAA.NDBC:DKKF1:1,2019-11-12T02:00:00Z,25.1800,-80.4900,1.0,24.98,11111222 
ENP,ioos.station.NOAA.NDBC:DKKF1:1,2019-11-12T04:00:00Z,25.1800,-80.4900,1.0,24.87,11111222 
ENP,ioos.station.NOAA.NDBC:DKKF1:1,2019-11-12T05:00:00Z,25.1800,-80.4900,1.0,24.82,11111222 
ENP,ioos.station.NOAA.NDBC:DKKF1:1,2019-11-12T06:00:00Z,25.1800,-80.4900,1.0,24.78,11111222 
ENP,ioos.station.NOAA.NDBC:DKKF1:1,2019-11-12T07:00:00Z,25.1800,-80.4900,1.0,24.76,11111222 
ENP,ioos.station.NOAA.NDBC:DKKF1:1,2019-11-12T08:00:00Z,25.1800,-80.4900,1.0,24.73,11111222 
ENP,ioos.station.NOAA.NDBC:DKKF1:1,2019-11-12T09:00:00Z,25.1800,-80.4900,1.0,24.7,11111222 
ENP,ioos.station.NOAA.NDBC:DKKF1:1,2019-11-12T10:00:00Z,25.1800,-80.4900,1.0,24.69,11111222 
ENP,ioos.station.NOAA.NDBC:DKKF1:1,2019-11-12T11:00:00Z,25.1800,-80.4900,1.0,24.68,11111222 
ENP,ioos.station.NOAA.NDBC:DKKF1:1,2019-11-12T13:00:00Z,25.1800,-80.4900,1.0,24.66,11111222 
ENP,ioos.station.NOAA.NDBC:DKKF1:1,2019-11-12T14:00:00Z,25.1800,-80.4900,1.0,24.64,11111222 
ENP,ioos.station.NOAA.NDBC:DKKF1:1,2019-11-12T15:00:00Z,25.1800,-80.4900,1.0,24.69,11111222 
ENP,ioos.station.NOAA.NDBC:DKKF1:1,2019-11-12T16:00:00Z,25.1800,-80.4900,1.0,24.84,11111222 
ENP,ioos.station.NOAA.NDBC:DKKF1:1,2019-11-12T17:00:00Z,25.1800,-80.4900,1.0,24.96,11111222 
ENP,ioos.station.NOAA.NDBC:DKKF1:1,2019-11-12T18:00:00Z,25.1800,-80.4900,1.0,25.08,11111222 
ENP,ioos.station.NOAA.NDBC:DKKF1:1,2019-11-12T19:00:00Z,25.1800,-80.4900,1.0,25.26,11111222 
ENP,ioos.station.NOAA.NDBC:DKKF1:1,2019-11-12T20:00:00Z,25.1800,-80.4900,1.0,25.42,11111222 
ENP,ioos.station.NOAA.NDBC:DKKF1:1,2019-11-12T21:00:00Z,25.1800,-80.4900,1.0,25.52,11111222 
ENP,ioos.station.NOAA.NDBC:DKKF1:1,2019-11-12T22:00:00Z,25.1800,-80.4900,1.0,25.6,11111222 
ENP,ioos.station.NOAA.NDBC:DKKF1:1,2019-11-12T23:00:00Z,25.1800,-80.4900,1.0,25.59,11111222 
ENP,ioos.station.NOAA.NDBC:DKKF1:1,2019-11-13T00:00:00Z,25.1800,-80.4900,1.0,25.57,11111222 
ENP,ioos.station.NOAA.NDBC:DKKF1:1,2019-11-13T01:00:00Z,25.1800,-80.4900,1.0,25.58,11111222 
ENP,ioos.station.NOAA.NDBC:DKKF1:1,2019-11-13T02:00:00Z,25.1800,-80.4900,1.0,25.62,11111222 
ENP,ioos.station.NOAA.NDBC:DKKF1:1,2019-11-13T04:00:00Z,25.1800,-80.4900,1.0,25.53,11111222 
ENP,ioos.station.NOAA.NDBC:DKKF1:1,2019-11-13T05:00:00Z,25.1800,-80.4900,1.0,25.43,11111222 
ENP,ioos.station.NOAA.NDBC:DKKF1:1,2019-11-13T06:00:00Z,25.1800,-80.4900,1.0,25.37,11111222 
ENP,ioos.station.NOAA.NDBC:DKKF1:1,2019-11-13T07:00:00Z,25.1800,-80.4900,1.0,25.34,11111222 
ENP,ioos.station.NOAA.NDBC:DKKF1:1,2019-11-13T08:00:00Z,25.1800,-80.4900,1.0,25.26,11111222 
ENP,ioos.station.NOAA.NDBC:DKKF1:1,2019-11-13T09:00:00Z,25.1800,-80.4900,1.0,25.16,11111222 
ENP,ioos.station.NOAA.NDBC:DKKF1:1,2019-11-13T10:00:00Z,25.1800,-80.4900,1.0,25.09,11111222 
ENP,ioos.station.NOAA.NDBC:DKKF1:1,2019-11-13T11:00:00Z,25.1800,-80.4900,1.0,25.02,11111222 
ENP,ioos.station.NOAA.NDBC:DKKF1:1,2019-11-13T12:00:00Z,25.1800,-80.4900,1.0,24.92,11111222 
ENP,ioos.station.NOAA.NDBC:DKKF1:1,2019-11-13T13:00:00Z,25.1800,-80.4900,1.0,24.83,11111222 
ENP,ioos.station.NOAA.NDBC:DKKF1:1,2019-11-13T14:00:00Z,25.1800,-80.4900,1.0,24.82,11111222 
ENP,ioos.station.NOAA.NDBC:DKKF1:1,2019-11-13T16:00:00Z,25.1800,-80.4900,1.0,25.0,11111222 